Kenansville, NC

11:02 PM EST on December 02, 2016 (GMT -0500)
Duplin County

Weather History for KDPL - March, 2013

Change the Weather History Date:

Sunday, March 3, 2013

  Actual Average (KOAJ) Record (KOAJ)
Temperature  
Mean Temperature 37 °F -  
Max Temperature 46 °F 58 °F 82 °F (1997)
Min Temperature 29 °F 36 °F 19 °F (2005)
Degree Days  
Heating Degree Days 28    
Moisture  
Dew Point 22 °F    
Average Humidity 57    
Maximum Humidity 82    
Minimum Humidity 37    
Precipitation  
Precipitation 0.00 in - - ()
Sea Level Pressure  
Sea Level Pressure 29.91 in    
Wind  
Wind Speed 6 mph (NW)    
Max Wind Speed 10 mph    
Max Gust Speed 17 mph    
Visibility 10 miles    
Events      
Averages and records for this station are not official NWS values.
T = Trace of Precipitation, MM = Missing Value Source: NWS Daily Summary

Daily Weather History Graph

Daily Weather History Graph

Search for Another Location

Airport or City:

Trip Planner

Search our weather history database for the weather conditions in past years. The results will help you decide how hot, cold, wet, or windy it might be!

Date:

Astronomy

Mar. 03, 2013 Rise Set
Actual Time 6:38 AM EST 6:09 PM EST
Civil Twilight 6:13 AM EST 6:34 PM EST
Nautical Twilight 5:43 AM EST 7:04 PM EST
Astronomical Twilight 5:14 AM EST 7:33 PM EST
Moon No Moon Rise 10:07 AM EST
Length of Visible Light 12h 21m
Length of Day
11h 31m
Waning Gibbous, 64% of the Moon is Illuminated
Mar 3
Waning Gibbous
Mar 4
Last Quarter
Mar 11
New
Mar 19
First Quarter
Mar 27
Full

Hourly Weather History & Observations

Time (EST) Temp. Windchill Dew Point Humidity Pressure Visibility Wind Dir Wind Speed Gust Speed Precip Events Conditions
12:15 AM 37.6 °F 31.6 °F 25.5 °F 62% 29.90 in 10.0 mi NNW 8.1 mph - N/A   Clear
12:35 AM 36.9 °F 30.7 °F 23.2 °F 58% 29.90 in 10.0 mi NNW 8.1 mph - N/A   Clear
12:55 AM 36.0 °F 31.1 °F 22.8 °F 59% 29.90 in 10.0 mi NNW 5.8 mph - N/A   Clear
1:15 AM 35.4 °F 30.5 °F 23.0 °F 61% 29.90 in 10.0 mi NNW 5.8 mph - N/A   Clear
1:35 AM 34.5 °F 30.4 °F 23.0 °F 63% 29.90 in 10.0 mi NNW 4.6 mph - N/A   Clear
1:55 AM 34.5 °F 28.6 °F 22.8 °F 62% 29.90 in 10.0 mi NNW 6.9 mph - N/A   Clear
2:15 AM 34.0 °F 29.8 °F 21.9 °F 61% 29.91 in 10.0 mi NNW 4.6 mph - N/A   Clear
2:35 AM 33.6 °F 27.5 °F 21.6 °F 61% 29.90 in 10.0 mi NW 6.9 mph - N/A   Clear
2:55 AM 32.9 °F 28.5 °F 21.4 °F 63% 29.90 in 10.0 mi NW 4.6 mph - N/A   Clear
3:15 AM 32.4 °F - 21.4 °F 64% 29.90 in 10.0 mi Calm Calm - N/A   Clear
3:35 AM 32.0 °F - 21.7 °F 66% 29.90 in 10.0 mi Calm Calm - N/A   Clear
3:55 AM 31.8 °F - 21.4 °F 65% 29.89 in 10.0 mi Calm Calm - N/A   Scattered Clouds
4:15 AM 31.5 °F 28.1 °F 21.7 °F 67% 29.90 in 10.0 mi WNW 3.5 mph - N/A   Scattered Clouds
4:35 AM 31.1 °F 27.7 °F 21.6 °F 68% 29.90 in 10.0 mi NW 3.5 mph - N/A   Clear
4:55 AM 30.4 °F 26.9 °F 21.4 °F 69% 29.91 in 10.0 mi West 3.5 mph - N/A   Clear
5:15 AM 29.7 °F 26.1 °F 21.6 °F 72% 29.91 in 10.0 mi West 3.5 mph - N/A   Clear
5:35 AM 29.5 °F - 21.6 °F 72% 29.92 in 10.0 mi Calm Calm - N/A   Clear
5:55 AM 30.0 °F - 21.4 °F 70% 29.92 in 10.0 mi Calm Calm - N/A   Scattered Clouds
6:15 AM 29.5 °F 25.9 °F 21.6 °F 72% 29.92 in 10.0 mi WNW 3.5 mph - N/A   Clear
6:35 AM 29.3 °F - 21.6 °F 73% 29.92 in 10.0 mi Calm Calm - N/A   Clear
6:55 AM 29.3 °F 25.6 °F 21.7 °F 73% 29.93 in 10.0 mi NW 3.5 mph - N/A   Clear
7:15 AM 30.2 °F 25.4 °F 22.1 °F 72% 29.93 in 10.0 mi NW 4.6 mph - N/A   Clear
7:35 AM 31.6 °F 27.0 °F 22.8 °F 70% 29.94 in 10.0 mi NW 4.6 mph - N/A   Clear
7:55 AM 32.5 °F 26.2 °F 22.8 °F 67% 29.95 in 10.0 mi NW 6.9 mph - N/A   Clear
8:15 AM 34.2 °F 27.5 °F 22.1 °F 61% 29.95 in 10.0 mi NW 8.1 mph - N/A   Clear
8:35 AM 35.2 °F 27.6 °F 21.4 °F 57% 29.95 in 10.0 mi NNW 10.4 mph - N/A   Clear
8:55 AM 36.7 °F 31.2 °F 21.4 °F 54% 29.95 in 10.0 mi NW 6.9 mph - N/A   Clear
9:15 AM 37.2 °F 31.2 °F 21.0 °F 52% 29.95 in 10.0 mi NW 8.1 mph - N/A   Clear
9:35 AM 38.3 °F 32.5 °F 21.4 °F 51% 29.94 in 10.0 mi NW 8.1 mph - N/A   Clear
9:55 AM 38.7 °F 32.9 °F 20.3 °F 48% 29.94 in 10.0 mi NW 8.1 mph - N/A   Clear
10:15 AM 39.4 °F 33.2 °F 19.9 °F 46% 29.93 in 10.0 mi North 9.2 mph - N/A   Clear
10:35 AM 40.5 °F 34.6 °F 19.6 °F 43% 29.93 in 10.0 mi WNW 9.2 mph - N/A   Scattered Clouds
10:55 AM 39.7 °F 34.3 °F 19.4 °F 44% 29.93 in 10.0 mi WNW 8.1 mph - N/A   Scattered Clouds
11:15 AM 40.3 °F 37.1 °F 19.8 °F 44% 29.92 in 10.0 mi WSW 4.6 mph - N/A   Scattered Clouds
11:35 AM 39.9 °F 35.8 °F 20.3 °F 45% 29.92 in 10.0 mi NW 5.8 mph - N/A   Scattered Clouds
11:55 AM 40.8 °F 36.2 °F 19.9 °F 43% 29.92 in 10.0 mi North 6.9 mph - N/A   Mostly Cloudy
12:15 PM 43.3 °F 38.6 °F 20.7 °F 40% 29.91 in 10.0 mi NNW 8.1 mph - N/A   Mostly Cloudy
12:35 PM 44.1 °F 40.1 °F 20.3 °F 39% 29.90 in 10.0 mi WSW 6.9 mph - N/A   Scattered Clouds
12:55 PM 44.6 °F 39.7 °F 21.6 °F 40% 29.89 in 10.0 mi WNW 9.2 mph - N/A   Mostly Cloudy
1:15 PM 42.8 °F 38.0 °F 21.2 °F 42% 29.88 in 10.0 mi NW 8.1 mph - N/A   Mostly Cloudy
1:35 PM 43.7 °F 38.1 °F 21.0 °F 41% 29.87 in 10.0 mi NNW 10.4 mph - N/A   Mostly Cloudy
1:55 PM 44.4 °F 39.5 °F 21.0 °F 39% 29.86 in 10.0 mi NNW 9.2 mph 17.3 mph N/A   Mostly Cloudy
2:15 PM 44.2 °F 38.8 °F 20.7 °F 39% 29.86 in 10.0 mi NNW 10.4 mph 16.1 mph N/A   Mostly Cloudy
2:35 PM 43.5 °F 38.3 °F 20.5 °F 40% 29.87 in 10.0 mi NW 9.2 mph - N/A   Scattered Clouds
2:55 PM 45.0 °F 39.7 °F 20.8 °F 38% 29.86 in 10.0 mi NNW 10.4 mph - N/A   Scattered Clouds
3:15 PM 45.9 °F 41.2 °F 21.0 °F 37% 29.86 in 10.0 mi West 9.2 mph - N/A   Scattered Clouds
3:35 PM 45.5 °F 41.8 °F 21.2 °F 38% 29.86 in 10.0 mi NW 6.9 mph - N/A   Mostly Cloudy
3:55 PM 45.1 °F 40.3 °F 20.8 °F 38% 29.86 in 10.0 mi NW 9.2 mph - N/A   Scattered Clouds
4:35 PM 45.5 °F 40.3 °F 20.8 °F 38% 29.86 in 10.0 mi West 10.4 mph 16.1 mph N/A   Scattered Clouds
4:55 PM 44.8 °F 41.0 °F 19.9 °F 37% 29.86 in 10.0 mi West 6.9 mph - N/A   Scattered Clouds
5:15 PM 45.0 °F 41.8 °F 21.4 °F 39% 29.86 in 10.0 mi NW 5.8 mph - N/A   Clear
5:35 PM 44.6 °F 39.2 °F 20.1 °F 38% 29.87 in 10.0 mi West 10.4 mph - N/A   Clear
5:55 PM 43.3 °F 40.7 °F 21.6 °F 42% 29.87 in 10.0 mi West 4.6 mph - N/A   Clear
6:15 PM 41.4 °F - 22.8 °F 48% 29.88 in 10.0 mi Calm Calm - N/A   Clear
6:35 PM 40.3 °F - 23.4 °F 51% 29.89 in 10.0 mi Calm Calm - N/A   Clear
6:55 PM 34.7 °F 31.8 °F 27.0 °F 73% 29.90 in 10.0 mi West 3.5 mph - N/A   Clear
7:15 PM 33.8 °F - 26.6 °F 75% 29.90 in 10.0 mi Calm Calm - N/A   Clear
7:35 PM 32.9 °F - 26.1 °F 76% 29.91 in 10.0 mi Calm Calm - N/A   Clear
7:55 PM 32.0 °F - 26.1 °F 79% 29.92 in 10.0 mi Calm Calm - N/A   Clear
8:15 PM 31.1 °F - 26.1 °F 82% 29.92 in 10.0 mi Calm Calm - N/A   Clear
8:35 PM 30.9 °F - 25.7 °F 81% 29.93 in 10.0 mi Calm Calm - N/A   Clear
8:55 PM 30.6 °F - 25.7 °F 82% 29.93 in 10.0 mi Calm Calm - N/A   Clear
9:15 PM 31.5 °F 24.9 °F 25.7 °F 79% 29.94 in 10.0 mi WNW 6.9 mph - N/A   Clear
9:35 PM 36.7 °F 34.1 °F 24.6 °F 62% 29.95 in 10.0 mi NW 3.5 mph - N/A   Clear
9:55 PM 36.1 °F 33.5 °F 24.3 °F 62% 29.95 in 10.0 mi NW 3.5 mph - N/A   Clear
10:15 PM 35.8 °F 30.9 °F 24.1 °F 62% 29.96 in 10.0 mi NNW 5.8 mph - N/A   Clear
10:35 PM 35.4 °F 30.5 °F 23.2 °F 61% 29.97 in 10.0 mi NW 5.8 mph - N/A   Clear
10:55 PM 35.4 °F 29.0 °F 22.1 °F 58% 29.97 in 10.0 mi NNW 8.1 mph - N/A   Clear
11:15 PM 34.7 °F 29.6 °F 21.2 °F 58% 29.98 in 10.0 mi NW 5.8 mph - N/A   Clear
11:35 PM 34.2 °F 27.5 °F 20.5 °F 57% 29.98 in 10.0 mi NNW 8.1 mph - N/A   Clear
11:55 PM 33.4 °F 29.1 °F 20.1 °F 58% 29.98 in 10.0 mi NNW 4.6 mph - N/A   Clear